{"data":{"norad_id":68568,"intl_designator":"2026-070AC","name":"STARLINK-37283","alt_names":[],"object_type":"PAYLOAD","status":"ACTIVE","operator":null,"country":"US","launch_date":"2026-04-02","launch_site_code":"AFETR","launch_vehicle":null,"mission":null,"orbit_class":"UNKNOWN","rcs_meters":null,"size_class":null,"mass_kg":null,"dimensions":null,"purposes":["comms"],"wikipedia_slug":null,"has_3d_model":false,"image_url":null,"decayed_at":null,"tle_current":{"epoch":"2026-09-20T01:11:55.165056Z","epoch_age_seconds":83652,"freshness":"FRESH","line1":"1 68568U 26070AC  26263.04994404  .00019465  00000+0  58563-3 0  9995","line2":"2 68568  53.1578 176.1519 0001424  91.2771 268.8395 15.34404671 26365","mean_motion":15.34404671,"eccentricity":0.0001424,"inclination_deg":53.1578,"raan_deg":176.1519,"arg_perigee_deg":91.2771,"mean_anomaly_deg":268.8395,"bstar":0.00058563,"rev_number":2636,"period_min":93.847472392112,"perigee_km":461.71522337271,"apogee_km":463.6634907192,"semimajor_km":6840.826357046,"source":"CELESTRAK","updated_at":"2026-09-20T09:00:43.939702Z"}}}